Погода в Буковеле

Украина / Ивано-Франковская область     48°21′54″N   24°23′53″E
темп.,
°C
ветер,
м/с
пор.,
м/с
влажн.,
%
обл.,
%
осадки,
мм/ч
давл.,
гПа
погр.,
м
22 января, сб
сб2223:00−15юз249976 0.2 102096
02:00−12юз2397100 0.3 101891
05:00−12юз2397100 0.1 101772
08:00−15юз219968 0.2 101925
11:00−10зюз238986 0.0 1018363
14:00−9зюз2484100 0.1 1017656
17:00−10зюз2297100 1.1 1019177
20:00−13зюз1198100 2.9 102414
23 января, вс
вс2323:00−14з1299100 0.4 102637
02:00−16зюз1199100 0.5 102713
05:00−15зюз2197100 0.0 102620
08:00−12зюз2397100 0.6 1024115
11:00−9зсз1694100 1.9 1023621
14:00−9с4993100 4.6 10241294
17:00−11ссв41095100 1.6 10271194
20:00−13св3996100 2.8 1031880
24 января, пн
пн2423:00−14св229897 0.9 103481
02:00−18ссв1110088 1.1 103715
05:00−22св01100100 0.1 104010
08:00−21сз0110092 0.1 104111
11:00−11с129167 0.0 1038229
14:00−9св128471 0.0 1035514
17:00−15св119926 0.0 10389
20:00−21ююз11100100 0.0 10419
25 января, вт
вт2523:00−22ююз119840 0.0 104110
02:00−22ююз11912 0.0 104110
05:00−22ююз11861 0.0 104010
08:00−23ююз218467 0.0 103910
11:00−8зюз1168100 0.0 1032117
14:00−6зюз2273100 0.0 1029308
17:00−10юз229493 0.0 103073
20:00−13юз2395100 0.0 103166
26 января, ср
ср2623:00−13юз2397100 0.1 103098
02:00−14юз2397100 0.1 103083
05:00−13юз2397100 0.1 102875
08:00−14юз2298100 0.6 102951
11:00−8зюз1294100 0.9 1026219
14:00−5сз2489100 1.8 1025819
17:00−11ссз119890 0.4 102810
20:00−15з1199100 0.5 103010